STARLINK-34536, 64748

Orbit data source: Space-Track

STARLINK-34536, 64748 is a payload satellite owned by SpaceX/Seattle (US) in LEO that was launched on Wed, 02 Jul 2025 UTC via an FALCON 9 launch vehicle from the Air Force Eastern Test Range (AFETR). Payload-class satellites include a variety of spacecraft equipped with specific instruments for various scientific and technological missions. These include communications satellites like Starlink; space stations such as the ISS; scientific satellites like the Hubble; Earth observation satellites from companies like Planet Labs, Umbra, and HawkEye 360; GPS; miniature CubeSats for education and research; and military/defense satellites.

Not visible in the next 10 days
Identifier
64748, 2025-144AA
Orbit
LEO
Last TLE update
15 hours ago
Origin
Manufacturer
SpaceX/Seattle
Mission
Operational spacecraft
Bus & Motor
STARLINK V2MO, Unknown motor
Mass
575 kg wet, ~530 kg dry
Launch date (UTC)
2025-07-02 (1 week ago)
Launch vehicle
FALCON 9
Launch site
Air Force Eastern Test Range (AFETR)
Object type
Payload
Rocket body
Debris
Shape & HBR
Unknown
Radar Cross Section
RCS unknown

Expand to show TLE details & history

TLE from 15 hours ago
0 STARLINK-34536
1 64748U 25144AA  25191.66668981 -.01286726  00000-0 -50939-2 0  9995
2 64748  53.1534 231.6751 0000907  71.2410  45.7782 15.88556890  2570
Epoch: 2025-07-10T16:00Z
TLE epoch observation values (Epoch: 2025-07-10T16:00:01.999Z)
Latitude
45.61324°
Longitude
-166.73789°
Altitude
310.708 km
Speed
7.728 km/s
True Right ascension
00h 08m 24s
True Declination
45° 25' 47"
Sunlit
Object was in daylight at epoch
Visualization orbit readout
Latitude
-19.13242°
Longitude
44.79293°
Altitude
316.428 km
Speed
7.718 km/s
Apparent Right ascension
11h 13m 46s
Apparent Declination
-44° 14' 04"
Sunlit
Object is in full shadow
Visualization observer readout
Local Sidereal Time
18:48:12
Azimuth
241.876° WSW
Elevation
-41.892°
Doppler factor
1
Orbital elements
Apogee altitude
307.198 km
Perigee altitude
305.986 km
Semi-major axis
6,684.729 km
Eccentricity
0.00009
Inclination
53.1534°
RAAN
231.6751°
Arg. of periapsis
71.241°
True anomaly
Unknown
Mean anomaly
45.7782°
Eccentric anomaly
Unknown
Mean motion
3.97116 °/min
Orbital period
90.65 mins
BSTAR
-0.0050939
Loading maneuver chart data...
Loading SW <> Apogee altitude chart data...
Loading historical data...
Loading historical data...
Loading historical data...
Loading historical data...
Loading historical data...
Loading historical data...
Loading historical data...

STARLINK-34536 Visibility

Observer location: undefined°, undefined°

STARLINK-34536 is likely not visible in the next few days
Span
Click to sort rows by Start time (UTC) header in descending order
Start Az.
Max El. time (UTC)
Max El. Az.
Max El.
End time (UTC)
End Az.
|